Location: Unspecified
(35.2016°N, 0.0000°E)
Time: 20:57:17
(UTC+00:00)

Courier 1B Rocket - All Passes

Search period start: 04 April 2026 00:00
Search period end: 14 April 2026 00:00
Orbit: 920 x 1201 km, 28.2° (Epoch: 28 March)

Date Brightness Start Highest point End Pass type
(mag) Time Alt. Az. Time Alt. Az. Time Alt. Az.
4 Apr - 00:12:22 10° SW 00:17:34 28° SSE 00:22:47 10° ESE night (unlit)
4 Apr - 02:04:29 10° WSW 02:10:22 44° S 02:16:28 10° ESE visible
4 Apr - 03:57:27 10° WSW 04:03:21 41° S 04:09:36 10° ESE visible
4 Apr - 05:51:12 10° WSW 05:56:16 23° SSW 06:01:34 10° SSE daylight
4 Apr - 23:11:57 10° SSW 23:16:35 22° SSE 23:21:10 10° ESE night (unlit)
5 Apr - 01:03:33 10° WSW 01:09:19 40° S 01:15:10 10° ESE night (unlit)
5 Apr - 02:56:20 10° WSW 03:02:15 44° S 03:08:25 10° ESE visible
5 Apr - 04:49:45 10° WSW 04:55:11 29° SSW 05:00:52 10° SE visible
5 Apr - 06:45:46 10° SW 06:47:57 12° SSW 06:50:09 10° S daylight
5 Apr - 22:11:56 10° S 22:15:36 16° SSE 22:19:13 10° ESE night (unlit)
6 Apr - 00:02:41 10° SW 00:08:16 34° SSE 00:13:51 10° ESE night (unlit)
6 Apr - 01:55:16 10° WSW 02:01:10 45° S 02:07:12 10° ESE visible
6 Apr - 03:48:28 10° WSW 03:54:06 35° SSW 03:59:59 10° SE visible
6 Apr - 05:42:59 10° WSW 05:46:53 16° SSW 05:50:54 10° SSE daylight
6 Apr - 21:13:07 10° SSE 21:14:38 11° SSE 21:16:08 10° SE night (unlit)
6 Apr - 23:01:57 10° SW 23:07:15 28° SSE 23:12:29 10° ESE night (unlit)
7 Apr - 00:54:12 10° WSW 01:00:05 44° S 01:06:01 10° ESE night (unlit)
7 Apr - 02:47:16 10° WSW 02:53:02 40° S 02:58:59 10° ESE visible
7 Apr - 04:41:07 10° WSW 04:45:50 22° SSW 04:50:44 10° SSE visible
7 Apr - 22:01:24 10° SSW 22:06:15 22° SSE 22:10:58 10° ESE night (unlit)
7 Apr - 23:53:11 10° WSW 23:59:02 40° S 00:04:49 10° ESE night (unlit)
8 Apr - 01:46:07 10° WSW 01:51:58 43° S 01:57:54 10° ESE visible
8 Apr - 03:39:37 10° WSW 03:44:49 28° SSW 03:50:11 10° SE visible
8 Apr - 05:36:29 10° SW 05:37:29 10° SSW 05:38:29 10° SSW daylight
8 Apr - 21:01:12 10° SSW 21:05:14 17° SSE 21:09:10 10° ESE visible
8 Apr - 22:52:13 10° SW 22:57:59 35° SSE 23:03:35 10° ESE night (unlit)
9 Apr - 00:44:57 10° WSW 00:50:53 45° S 00:56:48 10° ESE night (unlit)
9 Apr - 02:38:16 10° WSW 02:43:47 33° SSW 02:49:24 10° SE visible
9 Apr - 04:33:00 10° WSW 04:36:29 15° SSW 04:40:02 10° S visible
9 Apr - 20:01:50 10° S 20:04:13 12° SSE 20:06:33 10° SE visible
9 Apr - 21:51:21 10° SW 21:56:56 29° SSE 22:02:18 10° ESE visible
9 Apr - 23:43:48 10° WSW 23:49:49 44° S 23:55:42 10° ESE night (unlit)
10 Apr - 01:37:00 10° WSW 01:42:45 39° S 01:48:31 10° ESE night (unlit)
10 Apr - 03:31:00 10° WSW 03:35:29 21° SSW 03:40:03 10° SSE visible
10 Apr - 20:50:40 10° SSW 20:55:53 24° SSE 21:00:52 10° ESE visible
10 Apr - 22:42:40 10° WSW 22:48:44 41° S 22:54:34 10° ESE night (unlit)
11 Apr - 00:35:45 10° WSW 00:41:42 43° S 00:47:33 10° ESE night (unlit)
11 Apr - 02:29:24 10° WSW 02:34:30 27° SSW 02:39:39 10° SE visible
11 Apr - 19:50:18 10° SSW 19:54:49 18° SSE 19:59:08 10° ESE visible
11 Apr - 21:41:35 10° SW 21:47:39 36° SSE 21:53:25 10° ESE visible
11 Apr - 23:34:29 10° WSW 23:40:37 46° S 23:46:32 10° ESE night (unlit)
12 Apr - 01:27:58 10° WSW 01:33:30 33° SSW 01:39:00 10° SE night (unlit)
12 Apr - 03:22:56 10° WSW 03:26:07 14° SSW 03:29:20 10° S visible
12 Apr - 18:50:35 10° S 18:53:44 13° SSE 18:56:47 10° SE visible
12 Apr - 20:40:36 10° SW 20:46:33 31° SSE 20:52:10 10° ESE visible
12 Apr - 22:33:14 10° WSW 22:39:31 45° S 22:45:29 10° ESE visible
13 Apr - 00:26:36 10° WSW 00:32:28 39° S 00:38:12 10° SE night (unlit)
13 Apr - 02:20:46 10° WSW 02:25:10 20° SSW 02:29:33 10° SSE night (unlit)
13 Apr - 19:39:48 10° SSW 19:45:26 25° SSE 19:50:46 10° ESE visible
13 Apr - 21:31:59 10° WSW 21:38:23 43° S 21:44:25 10° ESE visible
13 Apr - 23:25:14 10° WSW 23:31:24 44° S 23:37:18 10° ESE night (unlit)
